Gonzales, LA

2:59 PM CDT on April 24, 2017 (GMT -0500)
Gonzales

Weather History for KL38 - January, 2013

Change the Weather History Date:

Thursday, January 17, 2013

  Actual Average (KBTR) Record (KBTR)
Temperature  
Mean Temperature 44 °F -  
Max Temperature 53 °F 61 °F 83 °F (1907)
Min Temperature 35 °F 40 °F 18 °F (1977)
Degree Days  
Heating Degree Days 21    
Moisture  
Dew Point 34 °F    
Average Humidity 74    
Maximum Humidity 97    
Minimum Humidity 42    
Precipitation  
Precipitation 0.00 in - - ()
Sea Level Pressure  
Sea Level Pressure 30.30 in    
Wind  
Wind Speed 6 mph (NW)    
Max Wind Speed 16 mph    
Max Gust Speed 22 mph    
Visibility 10 miles    
Events Rain    
Averages and records for this station are not official NWS values.
T = Trace of Precipitation, MM = Missing Value Source: NWS Daily Summary

Daily Weather History Graph

Daily Weather History Graph

Search for Another Location

Airport or City:

Trip Planner

Search our weather history database for the weather conditions in past years. The results will help you decide how hot, cold, wet, or windy it might be!

Date:

Astronomy

Jan. 17, 2013 Rise Set
Actual Time 7:00 AM CST 5:27 PM CST
Civil Twilight 6:34 AM CST 5:53 PM CST
Nautical Twilight 6:05 AM CST 6:23 PM CST
Astronomical Twilight 5:36 AM CST 6:51 PM CST
Moon 10:38 AM CST (1/17) 11:45 PM CST (1/17)
Length of Visible Light 11h 19m
Length of Day
10h 27m
Waxing Crescent, 38% of the Moon is Illuminated
Jan 17
Waxing Crescent
Jan 18
First Quarter
Jan 26
Full
Feb 3
Last Quarter
Feb 10
New

Hourly Weather History & Observations

Time (CST) Temp. Windchill Dew Point Humidity Pressure Visibility Wind Dir Wind Speed Gust Speed Precip Events Conditions
12:15 AM 38.8 °F - 36.7 °F 92% 30.18 in 10.0 mi North - - N/A Rain Light Rain
12:35 AM 39.2 °F - 36.7 °F 91% 30.18 in 10.0 mi North - - N/A   Overcast
12:55 AM 39.2 °F - 36.7 °F 91% 30.19 in 10.0 mi North - - N/A   Overcast
1:15 AM 39.2 °F - 36.5 °F 90% 30.19 in 10.0 mi North - - N/A   Overcast
1:35 AM 39.4 °F - 36.1 °F 88% 30.19 in 10.0 mi North - - N/A   Overcast
1:55 AM 39.6 °F - 36.3 °F 88% 30.20 in 10.0 mi North - - N/A   Overcast
2:15 AM 39.7 °F - 36.1 °F 87% 30.20 in 10.0 mi North - - N/A   Overcast
2:35 AM 39.4 °F - 36.0 °F 88% 30.20 in 10.0 mi North - - N/A   Mostly Cloudy
3:15 AM 39.2 °F - 35.1 °F 85% 30.20 in 10.0 mi North - - N/A   Clear
3:35 AM 39.2 °F - 35.2 °F 86% 30.21 in 10.0 mi North - - N/A   Clear
3:55 AM 39.2 °F - 35.1 °F 85% 30.21 in 10.0 mi North - - N/A   Clear
4:15 AM 39.2 °F - 34.9 °F 84% 30.22 in 10.0 mi North - - N/A   Clear
4:35 AM 37.9 °F - 35.2 °F 90% 30.23 in 10.0 mi North - - N/A   Scattered Clouds
4:55 AM 38.1 °F - 35.6 °F 91% 30.23 in 10.0 mi North - - N/A   Mostly Cloudy
5:15 AM 37.8 °F - 35.6 °F 92% 30.24 in 10.0 mi North - - N/A   Overcast
5:35 AM 37.4 °F - 35.4 °F 93% 30.24 in 10.0 mi North - - N/A   Mostly Cloudy
5:55 AM 36.9 °F - 35.6 °F 95% 30.25 in 10.0 mi North - - N/A   Scattered Clouds
6:15 AM 36.5 °F - 35.4 °F 96% 30.26 in 10.0 mi North - - N/A   Clear
6:35 AM 35.8 °F - 34.9 °F 97% 30.26 in 10.0 mi North - - N/A   Clear
6:55 AM 36.7 °F - 34.5 °F 92% 30.28 in 10.0 mi North - - N/A   Clear
7:15 AM 36.3 °F - 34.0 °F 91% 30.28 in 10.0 mi North - - N/A   Clear
7:35 AM 36.3 °F - 34.2 °F 92% 30.28 in 10.0 mi North - - N/A   Clear
7:55 AM 36.9 °F - 35.1 °F 93% 30.28 in 10.0 mi Calm Calm - N/A   Clear
8:15 AM 38.3 °F 35.9 °F 35.4 °F 89% 30.30 in 10.0 mi West 3.5 mph - N/A   Clear
8:35 AM 39.6 °F 36.3 °F 35.8 °F 86% 30.30 in 10.0 mi NNW 4.6 mph - N/A   Clear
8:55 AM 40.3 °F 36.3 °F 35.6 °F 83% 30.31 in 10.0 mi WNW 5.8 mph - N/A   Clear
9:15 AM 41.4 °F 36.8 °F 36.0 °F 81% 30.33 in 10.0 mi NW 6.9 mph - N/A   Clear
9:35 AM 42.1 °F 38.4 °F 36.1 °F 79% 30.34 in 10.0 mi NNW 5.8 mph - N/A   Clear
9:55 AM 43.0 °F 38.2 °F 35.8 °F 76% 30.33 in 10.0 mi West 8.1 mph - N/A   Clear
10:15 AM 44.1 °F 39.0 °F 35.8 °F 73% 30.34 in 10.0 mi WNW 9.2 mph - N/A   Clear
10:35 AM 44.8 °F 40.4 °F 35.4 °F 70% 30.33 in 10.0 mi NW 8.1 mph - N/A   Clear
10:55 AM 45.5 °F 41.3 °F 35.1 °F 67% 30.33 in 10.0 mi WNW 8.1 mph - N/A   Clear
11:15 AM 46.8 °F - 34.2 °F 62% 30.33 in 10.0 mi WNW 10.4 mph 17.3 mph N/A   Clear
11:35 AM 47.1 °F - 31.5 °F 55% 30.32 in 10.0 mi NW 12.7 mph 18.4 mph N/A   Clear
11:55 AM 48.2 °F - 31.6 °F 53% 30.31 in 10.0 mi NW 11.5 mph 19.6 mph N/A   Clear
12:15 PM 48.7 °F - 30.6 °F 50% 30.30 in 10.0 mi WNW 8.1 mph 18.4 mph N/A   Clear
12:35 PM 49.3 °F - 28.9 °F 45% 30.29 in 10.0 mi NW 16.1 mph 21.9 mph N/A   Clear
12:55 PM 50.0 °F - 30.4 °F 47% 30.28 in 10.0 mi NNW 11.5 mph 18.4 mph N/A   Clear
1:15 PM 50.5 °F - 28.9 °F 43% 30.28 in 10.0 mi NW 13.8 mph 19.6 mph N/A   Clear
1:35 PM 51.4 °F - 30.7 °F 45% 30.27 in 10.0 mi NW 10.4 mph 17.3 mph N/A   Clear
1:55 PM 51.4 °F - 28.9 °F 42% 30.27 in 10.0 mi NW 11.5 mph 20.7 mph N/A   Clear
2:15 PM 51.8 °F - 30.2 °F 44% 30.27 in 10.0 mi NW 10.4 mph 17.3 mph N/A   Clear
2:35 PM 52.2 °F - 31.8 °F 46% 30.27 in 10.0 mi NNW 9.2 mph - N/A   Clear
2:55 PM 52.7 °F - 32.0 °F 45% 30.27 in 10.0 mi North 9.2 mph - N/A   Clear
3:15 PM 52.7 °F - 32.2 °F 46% 30.27 in 10.0 mi NNW 12.7 mph 17.3 mph N/A   Clear
3:35 PM 52.9 °F - 32.0 °F 45% 30.28 in 10.0 mi NNW 13.8 mph - N/A   Clear
3:55 PM 53.2 °F - 32.4 °F 45% 30.29 in 10.0 mi NNW 6.9 mph - N/A   Clear
4:55 PM 53.1 °F - 32.4 °F 45% 30.31 in 10.0 mi North 9.2 mph - N/A   Clear
5:35 PM 50.4 °F - 33.1 °F 52% 30.34 in 10.0 mi North 8.1 mph - N/A   Clear
6:15 PM 48.2 °F - 33.4 °F 57% 30.36 in 10.0 mi North 3.5 mph - N/A   Clear
6:55 PM 45.1 °F - 35.4 °F 69% 30.38 in 10.0 mi Calm Calm - N/A   Clear
7:55 PM 42.3 °F - 36.7 °F 81% 30.41 in 10.0 mi Calm Calm - N/A   Clear
8:15 PM 42.1 °F - 36.9 °F 82% 30.42 in 10.0 mi Calm Calm - N/A   Clear
8:35 PM 42.4 °F 40.7 °F 36.7 °F 80% 30.42 in 10.0 mi NNW 3.5 mph - N/A   Clear
8:55 PM 41.2 °F - 36.9 °F 85% 30.43 in 10.0 mi Calm Calm - N/A   Clear
9:15 PM 40.8 °F 38.8 °F 37.0 °F 86% 30.43 in 10.0 mi NNW 3.5 mph - N/A   Clear
9:35 PM 40.5 °F 37.3 °F 36.5 °F 86% 30.43 in 10.0 mi NNW 4.6 mph - N/A   Clear
9:55 PM 41.9 °F 40.0 °F 35.8 °F 79% 30.43 in 10.0 mi North 3.5 mph - N/A   Clear
11:15 PM 40.3 °F 36.3 °F 35.6 °F 83% 30.43 in 10.0 mi NNW 5.8 mph - N/A   Clear
11:35 PM 41.2 °F 37.3 °F 35.1 °F 79% 30.43 in 10.0 mi NNW 5.8 mph - N/A   Clear
11:55 PM 41.5 °F 37.1 °F 34.9 °F 77% 30.43 in 10.0 mi North 6.9 mph - N/A   Clear